Location: Cassagne
(43.1218°N, 0.9901°E)
Time: 10:44:21
(UTC+00:00)

Cosmos 1943 Rocket - Pass Details

Date: 17 February 2020
Orbit: 813 x 842 km, 71.0° (Epoch: 08 April)

Event Time Altitude Azimuth Distance (km) Brightness Sun altitude
Rises 06:13:23 0° 323° (NW) 3,346 4.9 -7.7°
Reaches altitude 10° 06:16:11 10° 311° (NW) 2,408 4.1 -7.2°
Maximum altitude 06:20:34 25° 258° (WSW) 1,596 3.2 -6.4°
Drops below altitude 10° 06:24:56 10° 205° (SSW) 2,397 4.4 -5.6°
Sets 06:27:44 0° 192° (SSW) 3,326 5.3 -5.1°
